FW5435 Weather Reports


time (UTC)temp
C
wind
direction
speed
KPH
gust
KPH
rain 1hr
cm
rain 24hr
cm
rain mn
cm
humidity
%
barometer
mb
20260502233534 12 0 0.0 0.0 0.00 0.00 0.00 87 1011.3
20260502233047 12 0 0.0 0.0 0.00 0.00 0.00 87 1011.3
20260502232533 12 0 0.0 0.0 0.00 0.00 0.00 87 1011.2
20260502232033 12 0 0.0 0.0 0.00 0.00 0.00 86 1011.2
20260502231548 12 0 0.0 0.0 0.00 0.00 0.00 86 1011.1
20260502231034 12 0 0.0 0.0 0.00 0.00 0.00 86 1011.0
20260502230534 12 0 0.0 0.0 0.00 0.00 0.00 85 1011.0
20260502230047 12 0 0.0 0.0 0.00 0.00 0.00 85 1010.9
20260502225533 13 0 0.0 0.0 0.00 0.00 0.00 85 1011.1
20260502225034 13 0 0.0 0.0 0.00 0.00 0.00 85 1011.0
20260502224544 13 0 0.0 0.0 0.00 0.00 0.00 85 1010.9
20260502224034 13 0 0.0 0.0 0.00 0.00 0.00 85 1010.8
20260502223538 13 0 0.0 0.0 0.00 0.00 0.00 85 1010.9
20260502223048 13 0 0.0 0.0 0.00 0.00 0.00 85 1010.9
20260502222534 13 0 0.0 0.0 0.00 0.00 0.00 84 1011.0
20260502222034 13 0 0.0 0.0 0.00 0.00 0.00 84 1010.9
20260502221543 13 0 0.0 0.0 0.00 0.00 0.00 84 1010.9
20260502221037 13 0 0.0 0.0 0.00 0.00 0.00 84 1010.8
20260502220533 13 0 0.0 0.0 0.00 0.00 0.00 84 1010.7
20260502220048 13 0 0.0 0.0 0.00 0.00 0.00 84 1010.7
20260502215534 13 0 0.0 0.0 0.00 0.00 0.00 84 1010.6
20260502215038 13 0 0.0 0.0 0.00 0.00 0.00 84 1010.5
20260502214552 13 0 0.0 0.0 0.00 0.00 0.00 84 1010.5
20260502214039 13 0 0.0 0.0 0.00 0.00 0.00 84 1010.4
20260502213534 13 0 0.0 0.0 0.00 0.00 0.00 83 1010.4
20260502213049 13 0 0.0 0.0 0.00 0.00 0.00 84 1010.5
20260502212534 13 0 0.0 0.0 0.00 0.00 0.00 83 1010.6
20260502212034 13 0 0.0 0.0 0.00 0.00 0.00 85 1010.6
20260502211550 13 0 0.0 0.0 0.00 0.00 0.00 85 1010.6
20260502211034 13 0 0.0 0.0 0.00 0.00 0.00 85 1010.4
20260502210533 13 0 0.0 0.0 0.00 0.00 0.00 85 1010.5
20260502210042 13 0 0.0 0.0 0.00 0.00 0.00 86 1010.6
20260502205535 13 0 0.0 0.0 0.00 0.00 0.00 85 1010.6
20260502205035 13 0 0.0 0.0 0.00 0.00 0.00 84 1010.6
20260502204542 13 0 0.0 1.6 0.00 0.00 0.00 85 1010.6
20260502204034 13 0 0.0 1.6 0.00 0.00 0.00 85 1010.7
20260502203532 13 0 0.0 1.6 0.00 0.00 0.00 85 1010.6
20260502203107 13 0 0.0 0.0 0.00 0.00 0.00 85 1010.7
20260502202535 13 0 0.0 0.0 0.00 0.00 0.00 85 1010.7
20260502202034 13 0 0.0 0.0 0.00 0.00 0.00 85 1010.7
20260502201548 13 0 0.0 0.0 0.00 0.00 0.00 85 1010.6
20260502201036 13 0 0.0 1.6 0.00 0.00 0.00 85 1010.4
20260502200534 13 0 0.0 1.6 0.00 0.00 0.00 85 1010.5
20260502200043 12 0 0.0 3.2 0.00 0.00 0.00 86 1010.5
20260502195533 12 0 0.0 3.2 0.00 0.00 0.00 87 1010.7
20260502195034 12 0 0.0 3.2 0.00 0.00 0.00 87 1010.8
20260502194544 12 0 0.0 0.0 0.00 0.00 0.00 87 1010.8
20260502194033 12 0 0.0 0.0 0.00 0.00 0.00 89 1011.0
20260502193533 12 0 0.0 0.0 0.00 0.00 0.00 89 1011.0
20260502193053 12 0 0.0 0.0 0.00 0.00 0.00 89 1011.1
20260502192535 12 0 0.0 0.0 0.00 0.00 0.00 89 1011.3
20260502192035 12 0 0.0 0.0 0.00 0.00 0.00 88 1011.3
20260502191541 12 0 0.0 0.0 0.00 0.00 0.00 89 1011.2
20260502191035 12 0 0.0 0.0 0.00 0.00 0.00 89 1011.2
20260502190535 12 0 0.0 0.0 0.00 0.00 0.00 89 1011.3
20260502190047 12 0 0.0 0.0 0.00 0.00 0.00 90 1011.4
20260502185532 12 0 0.0 0.0 0.00 0.00 0.00 90 1011.3
20260502185035 12 0 0.0 0.0 0.00 0.00 0.00 90 1011.4
20260502184545 12 0 0.0 0.0 0.00 0.00 0.00 91 1011.5
20260502184037 11 0 0.0 0.0 0.00 0.00 0.00 91 1011.6
20260502183535 11 0 0.0 0.0 0.00 0.00 0.00 91 1011.6
20260502183043 11 0 0.0 0.0 0.00 0.00 0.00 91 1011.6
20260502182536 12 0 0.0 0.0 0.00 0.00 0.00 91 1011.6
20260502182036 12 0 0.0 0.0 0.00 0.00 0.00 92 1011.6
20260502181605 12 0 0.0 0.0 0.00 0.00 0.00 92 1011.7
20260502181038 11 0 0.0 0.0 0.00 0.00 0.00 92 1011.9
20260502180537 11 0 0.0 0.0 0.00 0.00 0.00 92 1012.0
20260502164039 11 0 0.0 3.2 0.00 0.00 0.00 92 1012.5
20260502163535 11 0 0.0 4.8 0.00 0.00 0.00 92 1012.6
20260502163047 11 0 0.0 4.8 0.00 0.00 0.00 93 1012.6
20260502162535 11 0 0.0 4.8 0.00 0.00 0.00 93 1012.5
20260502162035 11 0 0.0 0.0 0.00 0.00 0.00 93 1012.8
20260502161544 11 0 0.0 0.0 0.00 0.00 0.00 93 1012.8
20260502161034 11 0 0.0 0.0 0.00 0.00 0.00 93 1013.1
20260502160536 11 0 0.0 0.0 0.00 0.00 0.00 93 1013.1
20260502152035 11 0 0.0 0.0 0.00 0.00 0.00 92 1012.6
20260502151554 11 0 0.0 0.0 0.00 0.00 0.00 92 1012.8
20260502151035 11 0 0.0 0.0 0.00 0.00 0.00 92 1012.8
20260502150536 11 0 0.0 0.0 0.00 0.00 0.00 93 1012.7
20260502130534 11 0 0.0 0.0 0.00 0.00 0.00 92 1012.0
20260502123534 11 0 0.0 3.2 0.00 0.00 0.00 92 1012.0
20260502123052 11 259 0.0 3.2 0.00 0.00 0.00 92 1011.8
20260502122535 11 0 0.0 0.0 0.00 0.00 0.00 91 1011.6
20260502122035 11 0 0.0 0.0 0.00 0.00 0.00 92 1011.6
20260502121547 11 0 0.0 0.0 0.00 0.00 0.00 92 1011.6
20260502121035 11 0 0.0 0.0 0.00 0.00 0.00 92 1011.6
20260502120537 11 0 0.0 0.0 0.00 0.00 0.00 92 1011.6
20260502115534 10 0 0.0 0.0 0.00 0.00 0.00 91 1011.7
20260502115037 10 0 0.0 0.0 0.00 0.00 0.00 91 1011.8
20260502114554 10 0 0.0 0.0 0.00 0.00 0.00 91 1011.7
20260502114034 11 0 0.0 0.0 0.00 0.00 0.00 91 1011.8
20260502113534 11 0 0.0 0.0 0.00 0.00 0.00 91 1011.8
20260502113054 11 0 0.0 0.0 0.00 0.00 0.00 92 1011.7
20260502112535 11 0 0.0 0.0 0.00 0.00 0.00 92 1011.8
20260502112035 11 0 0.0 0.0 0.00 0.00 0.00 92 1011.8
20260502111550 11 0 0.0 0.0 0.00 0.00 0.00 92 1011.9
20260502111035 11 0 0.0 0.0 0.00 0.00 0.00 92 1012.0
20260502110535 11 0 0.0 0.0 0.00 0.00 0.00 92 1012.1
20260502110045 11 0 0.0 0.0 0.00 0.00 0.00 92 1011.9
20260502105535 11 0 0.0 0.0 0.00 0.00 0.00 92 1012.0
20260502105036 11 0 0.0 0.0 0.00 0.00 0.00 92 1011.9
20260502104551 11 0 0.0 0.0 0.00 0.00 0.00 92 1011.9
20260502104034 11 0 0.0 0.0 0.00 0.00 0.00 92 1012.0
20260502103538 11 0 0.0 0.0 0.00 0.00 0.00 92 1012.0
20260502103050 11 0 0.0 0.0 0.00 0.00 0.00 92 1012.0
20260502102534 11 0 0.0 0.0 0.00 0.00 0.00 92 1012.0
20260502102035 11 0 0.0 0.0 0.00 0.00 0.00 92 1012.0
20260502101551 11 0 0.0 3.2 0.00 0.00 0.00 92 1012.0
20260502101034 11 0 0.0 3.2 0.00 0.00 0.00 92 1012.0
20260502100534 11 0 1.6 3.2 0.00 0.00 0.00 92 1012.1
20260502091034 11 0 0.0 0.0 0.00 0.00 0.00 92 1012.0
20260502090536 11 0 0.0 0.0 0.00 0.00 0.00 91 1012.0
20260502071033 10 0 0.0 0.0 0.00 0.00 0.00 91 1010.8
20260502070534 11 0 0.0 0.0 0.00 0.00 0.00 91 1010.9
20260502070050 11 0 0.0 0.0 0.00 0.00 0.00 91 1010.9
20260502065534 11 0 0.0 0.0 0.00 0.00 0.00 91 1010.9
20260502065036 11 0 0.0 0.0 0.00 0.00 0.00 91 1011.0
20260502064557 11 0 0.0 0.0 0.00 0.00 0.00 91 1010.9
20260502064035 11 0 0.0 0.0 0.00 0.00 0.00 91 1011.0
20260502063534 11 0 0.0 0.0 0.00 0.00 0.00 90 1011.1
20260502063046 11 0 0.0 0.0 0.00 0.00 0.00 90 1011.3
20260502062533 11 0 0.0 0.0 0.00 0.00 0.00 90 1011.2
20260502062033 11 0 0.0 0.0 0.00 0.00 0.00 90 1011.3
20260502061545 11 0 0.0 0.0 0.00 0.00 0.00 90 1011.3
20260502061034 11 0 0.0 0.0 0.00 0.00 0.00 90 1011.3
20260502060533 11 0 0.0 0.0 0.00 0.00 0.00 90 1011.3
20260502060049 11 0 0.0 0.0 0.00 0.00 0.00 90 1011.2
20260502055534 11 0 0.0 0.0 0.00 0.00 0.00 90 1011.3
20260502055034 11 0 0.0 0.0 0.00 0.00 0.00 90 1011.3
20260502054553 11 0 0.0 0.0 0.00 0.00 0.00 90 1011.3
20260502054037 11 0 0.0 0.0 0.00 0.00 0.00 90 1011.4
20260502053533 11 0 0.0 0.0 0.00 0.00 0.00 90 1011.6
20260502053042 11 0 0.0 0.0 0.00 0.00 0.00 90 1011.5
20260502052534 11 0 0.0 0.0 0.00 0.00 0.00 90 1011.7
20260502052037 11 0 0.0 0.0 0.00 0.00 0.00 90 1011.8
20260502051549 11 0 0.0 0.0 0.00 0.00 0.00 90 1011.9
20260502051034 11 0 0.0 0.0 0.00 0.00 0.00 90 1011.8
20260502050536 11 0 0.0 0.0 0.00 0.00 0.00 90 1011.8
20260502050043 11 0 0.0 0.0 0.00 0.00 0.00 90 1011.9
20260502045534 11 0 0.0 0.0 0.00 0.00 0.00 90 1011.9
20260502045034 11 0 0.0 0.0 0.00 0.00 0.00 90 1011.9
20260502044543 11 0 0.0 0.0 0.00 0.00 0.00 90 1012.0
20260502044033 11 0 0.0 0.0 0.00 0.00 0.00 89 1011.9
20260502043533 11 0 0.0 0.0 0.00 0.00 0.00 89 1011.9
20260502043047 11 0 0.0 0.0 0.00 0.00 0.00 89 1012.1
20260502042534 11 0 0.0 0.0 0.00 0.00 0.00 89 1012.0
20260502042033 11 0 0.0 0.0 0.00 0.00 0.00 89 1012.0
20260502041544 11 0 0.0 0.0 0.00 0.00 0.00 89 1012.1
20260502041035 11 0 0.0 0.0 0.00 0.00 0.00 89 1012.2
20260502040534 11 0 0.0 0.0 0.00 0.00 0.00 88 1012.3
20260502040054 11 0 0.0 0.0 0.00 0.00 0.00 88 1012.2
20260502035534 11 0 0.0 0.0 0.00 0.00 0.00 88 1012.2
20260502035034 11 0 0.0 0.0 0.00 0.00 0.00 88 1012.3
20260502034544 11 0 0.0 0.0 0.00 0.00 0.00 88 1012.2
20260502034034 11 0 0.0 0.0 0.00 0.00 0.00 88 1012.2
20260502033535 11 0 0.0 0.0 0.00 0.00 0.00 88 1012.2
20260502033047 11 0 0.0 0.0 0.00 0.00 0.00 87 1012.2
20260502032535 12 0 0.0 0.0 0.00 0.00 0.00 87 1012.3
20260502032036 12 0 0.0 0.0 0.00 0.00 0.00 87 1012.3
20260502031557 12 0 0.0 0.0 0.00 0.00 0.00 87 1012.3
20260502031036 12 0 0.0 0.0 0.00 0.00 0.00 87 1012.3
20260502030535 12 0 0.0 0.0 0.00 0.00 0.00 87 1012.5
20260502030043 12 0 0.0 0.0 0.00 0.00 0.00 87 1012.6
20260502025537 12 0 0.0 0.0 0.00 0.00 0.00 87 1012.6
20260502025035 12 0 0.0 0.0 0.00 0.00 0.00 87 1012.6
20260502024547 12 0 0.0 0.0 0.00 0.00 0.00 87 1012.5
20260502024035 12 0 0.0 0.0 0.00 0.00 0.00 87 1012.5
20260502023536 12 0 0.0 0.0 0.00 0.00 0.00 87 1012.6
20260502023050 12 0 0.0 0.0 0.00 0.00 0.00 87 1012.5
20260502022536 12 0 0.0 0.0 0.00 0.00 0.00 86 1012.6
20260502022036 12 0 0.0 0.0 0.00 0.00 0.00 86 1012.7
20260502021544 12 0 0.0 0.0 0.00 0.00 0.00 86 1012.7
20260502021036 12 0 0.0 0.0 0.00 0.00 0.00 86 1012.7
20260502020536 12 0 0.0 0.0 0.00 0.00 0.00 87 1012.7
20260502020058 12 0 0.0 0.0 0.00 0.00 0.00 87 1012.7
20260502015536 12 0 0.0 0.0 0.00 0.00 0.00 86 1012.7
20260502015036 12 0 0.0 0.0 0.00 0.00 0.00 86 1012.6
20260502014550 12 0 0.0 0.0 0.00 0.00 0.00 86 1012.5
20260502014035 12 0 0.0 0.0 0.00 0.00 0.00 85 1012.6
20260502013536 12 0 0.0 0.0 0.00 0.00 0.00 85 1012.5
20260502013040 12 0 0.0 0.0 0.00 0.00 0.00 85 1012.4
20260502012535 12 0 0.0 0.0 0.00 0.00 0.00 86 1012.5
20260502012038 12 0 0.0 0.0 0.00 0.00 0.00 85 1012.6
20260502011546 12 0 0.0 0.0 0.00 0.00 0.00 85 1012.7
20260502011040 12 0 0.0 0.0 0.00 0.00 0.00 85 1012.5
20260502010535 12 0 0.0 0.0 0.00 0.00 0.00 85 1012.2
20260502010043 12 0 0.0 0.0 0.00 0.00 0.00 84 1012.1
20260502005535 12 0 0.0 0.0 0.00 0.00 0.00 84 1012.0
20260502005037 12 0 0.0 0.0 0.00 0.00 0.00 84 1012.1
20260502004555 12 0 0.0 0.0 0.00 0.00 0.00 83 1012.2
20260502004036 12 0 0.0 0.0 0.00 0.00 0.00 83 1012.1
20260502003539 12 0 0.0 0.0 0.00 0.00 0.00 82 1012.0
20260502003054 12 0 0.0 0.0 0.00 0.00 0.00 82 1011.7
20260502002535 12 0 0.0 0.0 0.00 0.00 0.00 82 1011.8
20260502002036 12 0 0.0 0.0 0.00 0.00 0.00 82 1011.8
20260502001622 12 0 0.0 0.0 0.00 0.00 0.00 81 1011.8
20260502001035 12 0 0.0 4.8 0.00 0.00 0.00 81 1011.6
20260502000535 12 0 0.0 4.8 0.00 0.00 0.00 81 1011.8
20260502000045 12 0 0.0 4.8 0.00 0.00 0.00 80 1011.8
20260501235535 12 0 0.0 0.0 0.00 0.00 0.00 81 1011.8
20260501235035 12 0 0.0 3.2 0.00 0.00 0.00 81 1011.9
20260501234550 13 0 0.0 3.2 0.00 0.00 0.00 80 1011.8
20260501234036 13 0 0.0 0.0 0.00 0.00 0.00 80 1011.8